Location: Krakow
(50.0212°N, 19.9423°E)
Time: 00:25:00
(UTC+02:00)

NOAA 18 - Pass Details

Date: 17 August 2024
Orbit: 837 x 859 km, 98.9° (Epoch: 19 September)

Event Time Altitude Azimuth Distance (km) Brightness Sun altitude
Exits shadow 21:27:46 17° 109° (ESE) 2,034 6.6 -13.7°
Maximum altitude 21:31:01 30° 60° (ENE) 1,504 6.3 -14.1°
Drops below altitude 10° 21:35:46 10° 2° (N) 2,507 8.2 -14.7°
Sets 21:38:24 0° 352° (N) 3,447 9.2 -15.0°
